TimeEDT,TemperatureF,Dew PointF,Humidity,Sea Level PressureIn,VisibilityMPH,Wind Direction,Wind SpeedMPH,Gust SpeedMPH,PrecipitationIn,Events,Conditions,WindDirDegrees,DateUTC
12:53 AM,64.0,62.1,93,30.04,5.0,Calm,Calm,-,N/A,,Clear,0,2012-10-06 04:53:00
1:53 AM,64.0,62.1,93,30.04,4.0,Calm,Calm,-,N/A,,Clear,0,2012-10-06 05:53:00
2:34 AM,64.4,62.6,94,30.04,4.0,Calm,Calm,-,N/A,,Partly Cloudy,0,2012-10-06 06:34:00
2:53 AM,63.0,62.1,97,30.03,4.0,Calm,Calm,-,N/A,,Partly Cloudy,0,2012-10-06 06:53:00
3:53 AM,63.0,61.0,93,30.00,4.0,Calm,Calm,-,0.01,,Clear,0,2012-10-06 07:53:00
4:53 AM,62.1,61.0,96,29.99,5.0,Calm,Calm,-,N/A,,Clear,0,2012-10-06 08:53:00
5:53 AM,62.1,60.1,93,29.99,5.0,Calm,Calm,-,N/A,,Clear,0,2012-10-06 09:53:00
6:53 AM,61.0,60.1,97,30.00,5.0,Calm,Calm,-,N/A,,Clear,0,2012-10-06 10:53:00
7:53 AM,61.0,60.1,97,30.01,3.0,Calm,Calm,-,N/A,,Partly Cloudy,0,2012-10-06 11:53:00
7:59 AM,60.8,60.8,100,30.01,1.8,Calm,Calm,-,N/A,,Partly Cloudy,0,2012-10-06 11:59:00
8:15 AM,62.6,60.8,94,30.02,3.0,Calm,Calm,-,N/A,,Partly Cloudy,0,2012-10-06 12:15:00
8:53 AM,66.0,64.0,93,30.02,5.0,Calm,Calm,-,N/A,,Clear,0,2012-10-06 12:53:00
10:53 AM,77.0,64.9,66,30.00,10.0,Variable,3.5,-,N/A,,Clear,0,2012-10-06 14:53:00
11:53 AM,82.0,64.0,54,29.99,10.0,Variable,5.8,-,N/A,,Clear,0,2012-10-06 15:53:00
12:53 PM,84.0,57.9,41,29.96,10.0,SW,6.9,-,N/A,,Clear,230,2012-10-06 16:53:00
1:53 PM,84.9,57.9,40,29.93,10.0,WSW,6.9,-,N/A,,Clear,250,2012-10-06 17:53:00
2:53 PM,87.1,57.9,37,29.91,10.0,Variable,3.5,-,N/A,,Clear,0,2012-10-06 18:53:00
3:53 PM,87.1,57.0,36,29.90,10.0,SW,8.1,-,N/A,,Clear,220,2012-10-06 19:53:00
4:53 PM,87.1,57.0,36,29.88,10.0,Variable,6.9,-,N/A,,Clear,0,2012-10-06 20:53:00
5:53 PM,84.9,57.9,40,29.89,10.0,SW,4.6,-,N/A,,Clear,220,2012-10-06 21:53:00
6:53 PM,81.0,59.0,47,29.91,10.0,Calm,Calm,-,N/A,,Clear,0,2012-10-06 22:53:00
7:53 PM,75.0,64.0,69,29.92,10.0,Calm,Calm,-,N/A,,Clear,0,2012-10-06 23:53:00
8:53 PM,72.0,64.0,76,29.94,10.0,Calm,Calm,-,N/A,,Clear,0,2012-10-07 00:53:00
9:53 PM,71.1,64.0,78,29.94,10.0,Calm,Calm,-,N/A,,Partly Cloudy,0,2012-10-07 01:53:00
10:53 PM,69.1,64.0,84,29.95,8.0,Calm,Calm,-,N/A,,Clear,0,2012-10-07 02:53:00
11:53 PM,68.0,64.0,87,29.95,8.0,Calm,Calm,-,N/A,,Scattered Clouds,0,2012-10-07 03:53:00